sat.trackr.live / text

‹ back to catalog

KINEIS-3B

NORAD 61224 · 2024-172E

PAYLOAD ACTIVE UNKNOWN

§ Identity

Operator
Country
FR
Launch date
2024-09-20
Launch site
RLLB
Launch vehicle
Mass (kg)
RCS (m²)

External: N2YO · Heavens-Above · Gunter

§ Orbital elements

Epoch: 2026-05-25T04:19:18.905952Z

Period
97.80 min
Inclination
98.0409°
Eccentricity
0.0003120
Mean motion
14.72322476 rev/d
Perigee alt
651.5 km
Apogee alt
655.9 km
Semi-major
7,031.8 km
B*
2.7669e-4
RAAN
235.4432°
Arg perigee
125.2187°
Mean anomaly
234.9312°
Rev number
8,996

§ Raw data

KINEIS-3B1 61224U 24172E   26145.18007993  .00001700  00000+0  27669-3 0  99962 61224  98.0409 235.4432 0003120 125.2187 234.9312 14.72322476 89966

JSON: /api/v1/satellites/61224 · /tle

For live sub-satellite position, see the globe view (requires WebGL).

§ Visibility from observer

Set your observer location to see the next 7 days of passes ≥ 10°. The values pass through the URL so the page stays shareable.

No JS? Fill the form by hand. The geolocation button needs JavaScript.

§ Radio — SatNOGS DB

ModeDescriptionDownlinkUplink
BPSK S-band telemetry 2.265 GHz
FM Telemetry 400.662 MHz

2 transmitters · refreshed weekly from db.satnogs.org